Location: *
(40.7873°S, 98.7174°E)
Time: 20:20:59
(UTC+00:00)

Cosmos 192 - Pass Details

Date: 29 September 2022
Orbit: 701 x 711 km, 74.0° (Epoch: 05 December)

Event Time Altitude Azimuth Distance (km) Brightness Sun altitude
Rises 22:08:48 0° 221° (SW) 3,134 7.4 -10.7°
Reaches altitude 10° 22:12:21 10° 247° (WSW) 2,206 6.4 -10.1°
Maximum altitude 22:14:37 13° 274° (W) 1,989 6.0 -9.6°
Drops below altitude 10° 22:16:53 10° 302° (WNW) 2,195 6.3 -9.2°
Sets 22:20:26 0° 328° (NNW) 3,103 7.2 -8.6°
